Weather History for KFVE - March, 2012

Change the Weather History Date:

Thursday, March 8, 2012

  Actual Average Record
Temperature  
Mean Temperature 45 °F 20 °F  
Max Temperature 55 °F 29 °F 55 °F (2012)
Min Temperature 35 °F 12 °F -11 °F (2007)
Degree Days  
Heating Degree Days 20    
Month to date heating degree days 353  
Since 1 July heating degree days 6727  
Cooling Degree Days 0    
Month to date cooling degree days 0  
Year to date cooling degree days 0  
Moisture  
Dew Point 33 °F    
Average Humidity 63    
Maximum Humidity 87    
Minimum Humidity 47    
Precipitation  
Precipitation 0.10 in 0.03 in 0.54 in (2005)
Month to date precipitation 0.16 0.26  
Year to date precipitation 2.44 2.83  
Sea Level Pressure  
Sea Level Pressure 29.61 in    
Wind  
Wind Speed 11 mph (South)    
Max Wind Speed 35 mph    
Max Gust Speed 47 mph    
Visibility 10 miles    
Events Rain    
T = Trace of Precipitation, MM = Missing Value Source: NWS Daily Summary

Daily Weather History Graph

Daily Weather History Graph

Search for Another Location

Airport or City:

Trip Planner

Search our weather history database for the weather conditions in past years. The results will help you decide how hot, cold, wet, or windy it might be!

Date:

Astronomy

Mar. 08, 2012 Rise Set
Actual Time 5:59 AM EST 5:29 PM EST
Civil Twilight 5:28 AM EST 5:59 PM EST
Nautical Twilight 4:53 AM EST 6:35 PM EST
Astronomical Twilight 4:17 AM EST 7:11 PM EST
Moon 6:19 PM EST (3/8) 5:36 AM EST (3/8)
Length of Visible Light 12h 31m
Length of Day
11h 30m
Full, 100% of the Moon is Illuminated
Mar 8
Full
Mar 14
Last Quarter
Mar 22
New
Mar 30
First Quarter
Apr 6
Full

Hourly Weather History & Observations

Time (EST) Temp. Windchill Dew Point Humidity Pressure Visibility Wind Dir Wind Speed Gust Speed Precip Events Conditions
12:53 AM 35.1 °F 27.9 °F 25.0 °F 67% 29.91 in 10.0 mi South 9.2 mph - N/A   Partly Cloudy
1:53 AM 37.0 °F 31.6 °F 25.0 °F 62% 29.88 in 10.0 mi SSE 6.9 mph - N/A   Mostly Cloudy
2:53 AM 37.9 °F 31.5 °F 26.1 °F 62% 29.86 in 10.0 mi South 9.2 mph - N/A   Overcast
3:53 AM 37.9 °F 32.7 °F 26.1 °F 62% 29.83 in 10.0 mi SSE 6.9 mph - N/A   Overcast
4:53 AM 39.0 °F 32.8 °F 27.0 °F 62% 29.81 in 10.0 mi South 9.2 mph - N/A   Overcast
5:53 AM 39.0 °F 34.8 °F 28.0 °F 65% 29.81 in 10.0 mi SSW 5.8 mph - N/A   Overcast
6:53 AM 41.0 °F 37.1 °F 28.9 °F 62% 29.79 in 10.0 mi SSE 5.8 mph - N/A   Overcast
7:53 AM 45.0 °F 40.1 °F 28.9 °F 53% 29.78 in 10.0 mi SSE 9.2 mph - N/A   Overcast
8:53 AM 42.1 °F 36.6 °F 30.0 °F 62% 29.76 in 10.0 mi SE 9.2 mph - N/A   Overcast
9:53 AM 45.0 °F 41.2 °F 30.9 °F 58% 29.72 in 10.0 mi SSE 6.9 mph - N/A   Overcast
10:53 AM 50.0 °F - 33.1 °F 52% 29.68 in 10.0 mi South 8.1 mph - N/A   Overcast
11:53 AM 55.0 °F - 35.1 °F 47% 29.66 in - SSW 12.7 mph - N/A   Overcast
12:53 PM 54.0 °F - 37.0 °F 53% 29.63 in - SSW 11.5 mph 20.7 mph N/A   Overcast
1:53 PM 54.0 °F - 36.0 °F 51% 29.61 in - SSW 13.8 mph - N/A   Overcast
2:53 PM 52.0 °F - 37.0 °F 57% 29.60 in - SSW 15.0 mph 21.9 mph N/A   Overcast
3:53 PM 51.1 °F - 37.0 °F 59% 29.55 in - SSW 11.5 mph - N/A   Overcast
4:53 PM 50.0 °F - 36.0 °F 59% 29.55 in - South 10.4 mph - N/A   Overcast
5:53 PM 50.0 °F - 35.1 °F 57% 29.52 in - South 12.7 mph - N/A   Overcast
6:53 PM 48.0 °F - 35.1 °F 61% 29.49 in - South 13.8 mph 21.9 mph 0.00 in Rain Light Rain
7:53 PM 48.0 °F - 36.0 °F 63% 29.43 in - South 16.1 mph 23.0 mph 0.00 in   Overcast
8:53 PM 48.0 °F - 37.9 °F 68% 29.42 in - South 12.7 mph 20.7 mph N/A   Overcast
9:39 PM 46.4 °F 40.7 °F 37.4 °F 71% 29.36 in - South 12.7 mph - N/A   Overcast
9:51 PM 46.4 °F 41.1 °F 37.4 °F 71% 29.35 in - South 11.5 mph - N/A   Overcast
9:53 PM 46.9 °F - 37.9 °F 71% 29.36 in - South 12.7 mph - N/A   Overcast
10:53 PM 46.9 °F - 41.0 °F 80% 29.32 in - South 11.5 mph - 0.00 in Rain Light Rain
11:22 PM 44.6 °F 35.9 °F 41.0 °F 87% 29.36 in - West 23.0 mph 36.8 mph 0.09 in Rain Light Rain
11:53 PM 39.9 °F 29.7 °F 36.0 °F 86% 29.39 in 9.0 mi WNW 23.0 mph 39.1 mph 0.10 in Rain Light Rain